{"data":{"norad_id":59072,"epoch":"2026-09-23T00:16:47.107776Z","epoch_age_seconds":38104,"freshness":"FRESH","line1":"1 59072U 24039V   26266.01165634  .00000170  00000+0  43425-4 0  9998","line2":"2 59072  88.9755 272.0476 0016982  13.8175 346.3490 14.46043555135326","mean_motion":14.46043555,"eccentricity":0.0016982,"inclination_deg":88.9755,"raan_deg":272.0476,"arg_perigee_deg":13.8175,"mean_anomaly_deg":346.349,"bstar":4.3425e-5,"rev_number":13532,"period_min":99.582062727011,"perigee_km":726.51449641317,"apogee_km":750.6857824335,"semimajor_km":7116.7371394233,"source":"CELESTRAK","updated_at":"2026-09-23T09:00:19.166514Z"}}